| time (UTC) | temp F | wind direction | speed MPH | gust MPH | rain 1hr in | rain 24hr in | rain mn in | humidity % | barometer mb |
| 20260506090048 | 31 | 194 | 0.0 | 0.0 | 0.00 | 0.00 | 0.00 | 56 | 1011.5 |
| 20260506084547 | 32 | 194 | 0.0 | 1.0 | 0.00 | 0.00 | 0.00 | 55 | 1011.5 |
| 20260506083046 | 32 | 194 | 0.0 | 1.0 | 0.00 | 0.00 | 0.00 | 54 | 1011.3 |
| 20260506081545 | 32 | 194 | 0.0 | 1.0 | 0.00 | 0.00 | 0.00 | 54 | 1011.3 |
| 20260506080156 | 31 | 194 | 0.0 | 1.0 | 0.00 | 0.00 | 0.00 | 54 | 1011.2 |
| 20260506073040 | 31 | 194 | 0.0 | 0.0 | 0.00 | 0.00 | 0.00 | 53 | 1011.3 |
| 20260506071538 | 31 | 194 | 0.0 | 0.0 | 0.00 | 0.00 | 0.00 | 51 | 1011.2 |
| 20260506061535 | 30 | 194 | 0.0 | 0.0 | 0.00 | 0.00 | 0.00 | 52 | 1011.2 |
| 20260506044529 | 35 | 194 | 0.0 | 1.0 | 0.00 | 0.00 | 0.00 | 46 | 1010.9 |
| 20260506043025 | 35 | 188 | 0.0 | 2.0 | 0.00 | 0.00 | 0.00 | 47 | 1010.8 |
| 20260506041523 | 35 | 188 | 0.0 | 2.0 | 0.00 | 0.00 | 0.00 | 46 | 1010.9 |
| 20260506040021 | 36 | 180 | 0.0 | 2.0 | 0.00 | 0.00 | 0.00 | 47 | 1010.8 |
| 20260506034521 | 36 | 135 | 0.0 | 2.0 | 0.00 | 0.00 | 0.00 | 48 | 1010.9 |
| 20260506033028 | 36 | 135 | 0.0 | 2.0 | 0.00 | 0.00 | 0.00 | 47 | 1010.7 |
| 20260506031530 | 35 | 105 | 0.0 | 2.0 | 0.00 | 0.00 | 0.00 | 46 | 1010.7 |
| 20260506030041 | 35 | 131 | 0.0 | 1.0 | 0.00 | 0.00 | 0.00 | 49 | 1010.6 |
| 20260506024525 | 34 | 131 | 0.0 | 2.0 | 0.00 | 0.00 | 0.00 | 47 | 1010.4 |
| 20260506023015 | 35 | 131 | 0.0 | 2.0 | 0.00 | 0.00 | 0.00 | 45 | 1010.1 |
| 20260506021514 | 35 | 131 | 0.0 | 0.0 | 0.00 | 0.00 | 0.00 | 43 | 1009.9 |
| 20260506020013 | 36 | 131 | 0.0 | 1.0 | 0.00 | 0.00 | 0.00 | 41 | 1009.8 |
| 20260506014511 | 37 | 131 | 0.0 | 0.0 | 0.00 | 0.00 | 0.00 | 39 | 1009.5 |
| 20260506013010 | 38 | 131 | 0.0 | 0.0 | 0.00 | 0.00 | 0.00 | 37 | 1009.3 |
| 20260506011511 | 39 | 131 | 0.0 | 0.0 | 0.00 | 0.00 | 0.00 | 37 | 1009.1 |
| 20260506010008 | 40 | 131 | 0.0 | 2.0 | 0.00 | 0.00 | 0.00 | 34 | 1009.0 |
| 20260506004524 | 40 | 126 | 1.0 | 3.0 | 0.00 | 0.00 | 0.00 | 33 | 1008.8 |
| 20260506003008 | 40 | 116 | 0.0 | 2.0 | 0.00 | 0.00 | 0.00 | 33 | 1008.9 |
| 20260506001509 | 41 | 116 | 0.0 | 4.0 | 0.00 | 0.00 | 0.00 | 31 | 1008.8 |
| 20260506000007 | 41 | 117 | 2.0 | 4.0 | 0.00 | 0.00 | 0.00 | 32 | 1008.8 |
| 20260505234506 | 41 | 148 | 0.0 | 3.0 | 0.00 | 0.00 | 0.00 | 32 | 1008.8 |
| 20260505233006 | 41 | 164 | 1.0 | 4.0 | 0.00 | 0.00 | 0.00 | 32 | 1008.7 |
| 20260505231505 | 41 | 140 | 1.0 | 6.0 | 0.00 | 0.00 | 0.00 | 31 | 1008.5 |
| 20260505230005 | 42 | 181 | 1.0 | 4.0 | 0.00 | 0.00 | 0.00 | 32 | 1008.5 |
| 20260505224503 | 42 | 85 | 2.0 | 5.0 | 0.00 | 0.00 | 0.00 | 31 | 1008.4 |
| 20260505223003 | 42 | 120 | 2.0 | 4.0 | 0.00 | 0.00 | 0.00 | 31 | 1008.4 |
| 20260505221502 | 43 | 110 | 2.0 | 6.0 | 0.00 | 0.00 | 0.00 | 30 | 1008.3 |
| 20260505220100 | 43 | 121 | 3.0 | 7.0 | 0.00 | 0.00 | 0.00 | 29 | 1008.1 |
| 20260505214605 | 43 | 163 | 1.0 | 6.0 | 0.00 | 0.00 | 0.00 | 29 | 1007.9 |
| 20260505213111 | 43 | 5 | 1.0 | 7.0 | 0.00 | 0.00 | 0.00 | 29 | 1007.6 |
| 20260505211556 | 43 | 78 | 1.0 | 6.0 | 0.00 | 0.00 | 0.00 | 31 | 1007.5 |
| 20260505210103 | 43 | 138 | 1.0 | 8.0 | 0.00 | 0.00 | 0.00 | 34 | 1007.4 |
| 20260505204554 | 43 | 108 | 3.0 | 7.0 | 0.00 | 0.00 | 0.00 | 31 | 1007.4 |
| 20260505203057 | 43 | 140 | 3.0 | 10.0 | 0.00 | 0.00 | 0.00 | 30 | 1007.3 |
| 20260505201554 | 43 | 116 | 2.0 | 8.0 | 0.00 | 0.00 | 0.00 | 31 | 1007.2 |
| 20260505200052 | 43 | 144 | 2.0 | 10.0 | 0.00 | 0.00 | 0.00 | 29 | 1007.2 |
| 20260505194557 | 43 | 138 | 3.0 | 12.0 | 0.00 | 0.00 | 0.00 | 28 | 1007.0 |
| 20260505193105 | 44 | 149 | 2.0 | 7.0 | 0.00 | 0.00 | 0.00 | 28 | 1007.0 |
| 20260505191551 | 44 | 16 | 3.0 | 9.0 | 0.00 | 0.00 | 0.00 | 29 | 1006.7 |
| 20260505190047 | 44 | 128 | 3.0 | 9.0 | 0.00 | 0.00 | 0.00 | 30 | 1006.6 |
| 20260505184553 | 44 | 132 | 2.0 | 7.0 | 0.00 | 0.00 | 0.00 | 28 | 1006.4 |
| 20260505183044 | 44 | 164 | 1.0 | 6.0 | 0.00 | 0.00 | 0.00 | 29 | 1006.0 |
| 20260505181544 | 44 | 157 | 3.0 | 9.0 | 0.00 | 0.00 | 0.00 | 29 | 1005.8 |
| 20260505180045 | 44 | 26 | 2.0 | 6.0 | 0.00 | 0.00 | 0.00 | 31 | 1005.7 |
| 20260505174542 | 44 | 5 | 2.0 | 7.0 | 0.00 | 0.00 | 0.00 | 32 | 1005.6 |
| 20260505173041 | 44 | 138 | 3.0 | 7.0 | 0.00 | 0.00 | 0.00 | 30 | 1005.5 |
| 20260505171546 | 44 | 58 | 3.0 | 9.0 | 0.00 | 0.00 | 0.00 | 31 | 1005.4 |
| 20260505170040 | 44 | 141 | 3.0 | 7.0 | 0.00 | 0.00 | 0.00 | 32 | 1005.2 |
| 20260505164540 | 43 | 126 | 2.0 | 6.0 | 0.00 | 0.00 | 0.00 | 34 | 1005.1 |
| 20260505163040 | 43 | 48 | 2.0 | 6.0 | 0.00 | 0.00 | 0.00 | 31 | 1005.0 |
| 20260505161533 | 42 | 79 | 2.0 | 9.0 | 0.00 | 0.00 | 0.00 | 34 | 1004.8 |
| 20260505153042 | 41 | 29 | 2.0 | 8.0 | 0.00 | 0.00 | 0.00 | 39 | 1004.8 |
| 20260505151531 | 41 | 134 | 1.0 | 4.0 | 0.00 | 0.00 | 0.00 | 39 | 1004.8 |
| 20260505124516 | 38 | 233 | 1.0 | 3.0 | 0.00 | 0.00 | 0.00 | 49 | 1003.4 |
| 20260505123017 | 36 | 61 | 0.0 | 4.0 | 0.00 | 0.00 | 0.00 | 50 | 1003.3 |
| 20260505121514 | 35 | 95 | 0.0 | 3.0 | 0.00 | 0.00 | 0.00 | 52 | 1003.4 |
| 20260505120029 | 33 | 9 | 0.0 | 0.0 | 0.00 | 0.00 | 0.00 | 53 | 1003.4 |
| 20260505114513 | 33 | 9 | 0.0 | 0.0 | 0.00 | 0.00 | 0.00 | 55 | 1003.2 |
| 20260505113013 | 32 | 9 | 0.0 | 0.0 | 0.00 | 0.00 | 0.00 | 54 | 1003.2 |
| 20260505111522 | 31 | 9 | 0.0 | 0.0 | 0.00 | 0.00 | 0.00 | 56 | 1003.0 |
| 20260505101501 | 31 | 9 | 0.0 | 0.0 | 0.00 | 0.00 | 0.00 | 53 | 1002.2 |
| 20260505094558 | 31 | 9 | 0.0 | 0.0 | 0.00 | 0.00 | 0.00 | 54 | 1001.9 |
| 20260505093056 | 32 | 9 | 0.0 | 0.0 | 0.00 | 0.00 | 0.00 | 52 | 1001.6 |
| 20260505091617 | 32 | 9 | 0.0 | 0.0 | 0.00 | 0.00 | 0.00 | 51 | 1001.4 |